Time,TemperatureF,DewpointF,PressureIn,WindDirection,WindDirectionDegrees,WindSpeedMPH,WindSpeedGustMPH,Humidity,HourlyPrecipIn,Conditions,Clouds,dailyrainin,SoftwareType,DateUTC
2013-06-23 00:01:00,68.0,68.0,30.14,North,0,0.0,-999.0,100,-99.99,,,-99.99,,2013-06-23 04:01:00,
2013-06-23 00:11:00,68.0,68.0,30.14,NNE,20,3.0,-999.0,100,-99.99,,,-99.99,,2013-06-23 04:11:00,
2013-06-23 00:21:00,68.0,68.0,30.13,North,0,0.0,-999.0,100,-99.99,,,-99.99,,2013-06-23 04:21:00,
2013-06-23 00:31:00,68.0,68.0,30.13,North,0,0.0,-999.0,100,-99.99,,,-99.99,,2013-06-23 04:31:00,
2013-06-23 00:42:00,68.0,68.0,30.13,North,0,0.0,-999.0,100,-99.99,,,-99.99,,2013-06-23 04:42:00,
2013-06-23 00:51:00,68.0,68.0,30.13,North,0,0.0,-999.0,100,-99.99,,,-99.99,,2013-06-23 04:51:00,
2013-06-23 01:01:00,68.0,68.0,30.12,North,0,0.0,-999.0,100,-99.99,,,-99.99,,2013-06-23 05:01:00,
2013-06-23 01:10:00,68.0,68.0,30.11,North,0,0.0,-999.0,100,-99.99,,,-99.99,,2013-06-23 05:10:00,
2013-06-23 01:21:00,68.0,68.0,30.11,North,0,0.0,-999.0,100,-99.99,,,-99.99,,2013-06-23 05:21:00,
2013-06-23 01:31:00,68.0,68.0,30.11,North,0,0.0,-999.0,100,-99.99,,,-99.99,,2013-06-23 05:31:00,
2013-06-23 01:41:00,68.0,68.0,30.11,North,0,0.0,-999.0,100,-99.99,,,-99.99,,2013-06-23 05:41:00,
2013-06-23 01:51:00,68.0,68.0,30.10,North,0,0.0,-999.0,100,-99.99,,,-99.99,,2013-06-23 05:51:00,
2013-06-23 02:02:00,68.0,68.0,30.10,WNW,300,5.0,-999.0,100,-99.99,,,-99.99,,2013-06-23 06:02:00,
2013-06-23 02:11:00,68.0,68.0,30.11,NNW,330,5.0,-999.0,100,-99.99,,,-99.99,,2013-06-23 06:11:00,
2013-06-23 02:22:00,68.0,68.0,30.11,North,0,0.0,-999.0,100,-99.99,,,-99.99,,2013-06-23 06:22:00,
2013-06-23 02:32:00,68.0,68.0,30.11,North,0,0.0,-999.0,100,-99.99,,,-99.99,,2013-06-23 06:32:00,
2013-06-23 02:43:00,68.0,68.0,30.11,North,0,0.0,-999.0,100,-99.99,,,-99.99,,2013-06-23 06:43:00,
2013-06-23 02:52:00,68.0,68.0,30.11,North,0,0.0,-999.0,100,-99.99,,,-99.99,,2013-06-23 06:52:00,
2013-06-23 03:02:00,68.0,68.0,30.11,North,0,0.0,-999.0,100,-99.99,,,-99.99,,2013-06-23 07:02:00,
2013-06-23 03:12:00,68.0,68.0,30.10,North,0,0.0,-999.0,100,-99.99,,,-99.99,,2013-06-23 07:12:00,
2013-06-23 03:33:00,68.0,68.0,30.10,North,0,0.0,-999.0,100,-99.99,,,-99.99,,2013-06-23 07:33:00,
2013-06-23 03:42:00,68.0,68.0,30.10,North,10,3.0,-999.0,100,-99.99,,,-99.99,,2013-06-23 07:42:00,
2013-06-23 03:53:00,68.0,68.0,30.10,North,10,3.0,-999.0,100,-99.99,,,-99.99,,2013-06-23 07:53:00,
2013-06-23 04:02:00,68.0,68.0,30.10,North,0,0.0,-999.0,100,-99.99,,,-99.99,,2013-06-23 08:02:00,
2013-06-23 04:11:00,68.0,68.0,30.10,North,0,0.0,-999.0,100,-99.99,,,-99.99,,2013-06-23 08:11:00,
2013-06-23 04:22:00,68.0,68.0,30.10,North,0,0.0,-999.0,100,-99.99,,,-99.99,,2013-06-23 08:22:00,
2013-06-23 04:33:00,66.0,66.0,30.10,North,0,0.0,-999.0,100,-99.99,,,-99.99,,2013-06-23 08:33:00,
2013-06-23 04:42:00,68.0,68.0,30.10,North,0,0.0,-999.0,100,-99.99,,,-99.99,,2013-06-23 08:42:00,
2013-06-23 04:53:00,66.0,66.0,30.10,North,0,0.0,-999.0,100,-99.99,,,-99.99,,2013-06-23 08:53:00,
2013-06-23 05:02:00,68.0,68.0,30.11,North,0,0.0,-999.0,100,-99.99,,,-99.99,,2013-06-23 09:02:00,
2013-06-23 05:12:00,66.0,66.0,30.11,North,0,0.0,-999.0,100,-99.99,,,-99.99,,2013-06-23 09:12:00,
2013-06-23 06:02:00,64.0,64.0,30.14,North,0,0.0,-999.0,100,-99.99,,,-99.99,,2013-06-23 10:02:00,
2013-06-23 06:11:00,64.0,64.0,30.14,North,0,0.0,-999.0,100,-99.99,,,-99.99,,2013-06-23 10:11:00,
2013-06-23 06:22:00,63.0,63.0,30.15,North,0,0.0,-999.0,100,-99.99,,,-99.99,,2013-06-23 10:22:00,
2013-06-23 06:52:00,66.0,66.0,30.14,North,0,0.0,-999.0,100,-99.99,,,-99.99,,2013-06-23 10:52:00,
2013-06-23 07:01:00,68.0,68.0,30.15,North,0,0.0,-999.0,100,-99.99,,,-99.99,,2013-06-23 11:01:00,
2013-06-23 07:11:00,68.0,68.0,30.15,North,0,0.0,-999.0,100,-99.99,,,-99.99,,2013-06-23 11:11:00,
2013-06-23 07:22:00,68.0,68.0,30.15,North,0,0.0,-999.0,100,-99.99,,,-99.99,,2013-06-23 11:22:00,
2013-06-23 07:33:00,68.0,68.0,30.15,North,0,0.0,-999.0,100,-99.99,,,-99.99,,2013-06-23 11:33:00,
2013-06-23 07:43:00,68.0,68.0,30.15,North,0,0.0,-999.0,100,-99.99,,,-99.99,,2013-06-23 11:43:00,
2013-06-23 07:53:00,68.0,68.0,30.15,North,0,0.0,-999.0,100,-99.99,,,-99.99,,2013-06-23 11:53:00,
2013-06-23 08:01:00,68.0,68.0,30.16,North,0,0.0,-999.0,100,-99.99,,,-99.99,,2013-06-23 12:01:00,
2013-06-23 08:11:00,68.0,68.0,30.16,North,0,0.0,-999.0,100,-99.99,,,-99.99,,2013-06-23 12:11:00,
2013-06-23 08:21:00,70.0,70.0,30.15,North,0,0.0,-999.0,100,-99.99,,,-99.99,,2013-06-23 12:21:00,
2013-06-23 08:33:00,72.0,72.0,30.16,North,0,0.0,-999.0,100,-99.99,,,-99.99,,2013-06-23 12:33:00,
2013-06-23 08:42:00,73.0,73.0,30.16,North,0,0.0,-999.0,100,-99.99,,,-99.99,,2013-06-23 12:42:00,
2013-06-23 08:53:00,73.0,73.0,30.16,North,0,0.0,-999.0,100,-99.99,,,-99.99,,2013-06-23 12:53:00,
2013-06-23 09:33:00,75.0,72.0,30.17,SSW,210,5.0,-999.0,88,-99.99,,,-99.99,,2013-06-23 13:33:00,
2013-06-23 09:43:00,75.0,72.0,30.17,WSW,240,5.0,-999.0,88,-99.99,,,-99.99,,2013-06-23 13:43:00,
2013-06-23 10:04:00,79.0,73.0,30.17,South,190,3.0,-999.0,83,-99.99,,,-99.99,,2013-06-23 14:04:00,
2013-06-23 10:33:00,79.0,73.0,30.17,South,170,3.0,-999.0,83,-99.99,,,-99.99,,2013-06-23 14:33:00,
2013-06-23 10:44:00,79.0,72.0,30.16,SSW,210,6.0,-999.0,78,-99.99,,,-99.99,,2013-06-23 14:44:00,
2013-06-23 10:52:00,81.0,73.0,30.16,SW,230,6.0,-999.0,78,-99.99,,,-99.99,,2013-06-23 14:52:00,
2013-06-23 11:05:00,81.0,73.0,30.16,SW,230,8.0,-999.0,78,-99.99,,,-99.99,,2013-06-23 15:05:00,
2013-06-23 11:11:00,81.0,73.0,30.16,SSW,210,8.0,-999.0,78,-99.99,,,-99.99,,2013-06-23 15:11:00,
2013-06-23 11:22:00,82.0,73.0,30.15,SSW,210,5.0,-999.0,74,-99.99,,,-99.99,,2013-06-23 15:22:00,
2013-06-23 11:34:00,82.0,73.0,30.15,SSW,210,7.0,-999.0,74,-99.99,,,-99.99,,2013-06-23 15:34:00,
2013-06-23 11:43:00,82.0,72.0,30.15,SW,220,9.0,-999.0,69,-99.99,,,-99.99,,2013-06-23 15:43:00,
2013-06-23 11:52:00,82.0,72.0,30.15,SSW,210,7.0,-999.0,69,-99.99,,,-99.99,,2013-06-23 15:52:00,
2013-06-23 12:04:00,82.0,73.0,30.14,SSW,200,8.0,-999.0,74,-99.99,,,-99.99,,2013-06-23 16:04:00,
2013-06-23 12:11:00,84.0,73.0,30.14,SSW,210,6.0,-999.0,70,-99.99,,,-99.99,,2013-06-23 16:11:00,
2013-06-23 12:22:00,84.0,73.0,30.13,South,170,8.0,-999.0,70,-99.99,,,-99.99,,2013-06-23 16:22:00,
2013-06-23 12:33:00,86.0,73.0,30.12,SSW,200,10.0,-999.0,66,-99.99,,,-99.99,,2013-06-23 16:33:00,
2013-06-23 12:42:00,88.0,73.0,30.12,South,170,8.0,-999.0,62,-99.99,,,-99.99,,2013-06-23 16:42:00,
2013-06-23 13:05:00,88.0,73.0,30.12,South,190,14.0,-999.0,62,-99.99,,,-99.99,,2013-06-23 17:05:00,
2013-06-23 13:43:00,88.0,72.0,30.12,SSW,210,14.0,18.0,58,-99.99,,,-99.99,,2013-06-23 17:43:00,
2013-06-23 13:52:00,88.0,73.0,30.11,SW,220,10.0,18.0,62,-99.99,,,-99.99,,2013-06-23 17:52:00,
2013-06-23 14:01:00,88.0,73.0,30.11,SSW,200,14.0,17.0,62,-99.99,,,-99.99,,2013-06-23 18:01:00,
2013-06-23 14:11:00,88.0,72.0,30.11,SW,220,15.0,18.0,58,-99.99,,,-99.99,,2013-06-23 18:11:00,
2013-06-23 14:22:00,88.0,72.0,30.11,SW,220,12.0,17.0,58,-99.99,,,-99.99,,2013-06-23 18:22:00,
2013-06-23 14:33:00,88.0,72.0,30.11,SW,230,12.0,18.0,58,-99.99,,,-99.99,,2013-06-23 18:33:00,
2013-06-23 14:42:00,88.0,72.0,30.11,South,190,9.0,18.0,58,-99.99,,,-99.99,,2013-06-23 18:42:00,
2013-06-23 15:01:00,88.0,70.0,30.10,SSW,210,13.0,18.0,55,-99.99,,,-99.99,,2013-06-23 19:01:00,
2013-06-23 15:32:00,88.0,72.0,30.10,SW,230,12.0,17.0,58,-99.99,,,-99.99,,2013-06-23 19:32:00,
2013-06-23 15:43:00,88.0,72.0,30.10,SW,230,8.0,17.0,58,-99.99,,,-99.99,,2013-06-23 19:43:00,
2013-06-23 15:53:00,88.0,72.0,30.09,SW,220,12.0,17.0,58,-99.99,,,-99.99,,2013-06-23 19:53:00,
2013-06-23 16:01:00,88.0,70.0,30.09,SW,230,8.0,-999.0,55,-99.99,,,-99.99,,2013-06-23 20:01:00,
2013-06-23 16:23:00,88.0,72.0,30.08,SSW,210,8.0,21.0,58,-99.99,,,-99.99,,2013-06-23 20:23:00,
2013-06-23 16:33:00,88.0,72.0,30.07,SSW,200,8.0,-999.0,58,-99.99,,,-99.99,,2013-06-23 20:33:00,
2013-06-23 16:42:00,88.0,72.0,30.07,South,190,9.0,-999.0,58,-99.99,,,-99.99,,2013-06-23 20:42:00,
2013-06-23 16:52:00,88.0,72.0,30.07,South,170,12.0,-999.0,58,-99.99,,,-99.99,,2013-06-23 20:52:00,
2013-06-23 17:01:00,88.0,72.0,30.07,South,190,13.0,-999.0,58,-99.99,,,-99.99,,2013-06-23 21:01:00,
2013-06-23 17:33:00,88.0,73.0,30.07,SW,230,15.0,20.0,62,-99.99,,,-99.99,,2013-06-23 21:33:00,
2013-06-23 19:01:00,73.0,73.0,30.08,North,0,0.0,-999.0,100,-99.99,,,-99.99,,2013-06-23 23:01:00,
2013-06-23 19:11:00,73.0,72.0,30.09,West,280,7.0,-999.0,94,-99.99,,,-99.99,,2013-06-23 23:11:00,
2013-06-23 19:22:00,73.0,72.0,30.09,West,270,6.0,-999.0,94,-99.99,,,-99.99,,2013-06-23 23:22:00,
2013-06-23 19:33:00,73.0,70.0,30.09,West,260,3.0,-999.0,88,-99.99,,,-99.99,,2013-06-23 23:33:00,
2013-06-23 19:44:00,73.0,72.0,30.09,North,0,0.0,-999.0,94,-99.99,,,-99.99,,2013-06-23 23:44:00,
2013-06-23 19:52:00,75.0,72.0,30.09,North,0,0.0,-999.0,88,-99.99,,,-99.99,,2013-06-23 23:52:00,
2013-06-23 20:01:00,75.0,72.0,30.09,SW,230,5.0,-999.0,88,-99.99,,,-99.99,,2013-06-24 00:01:00,
2013-06-23 20:22:00,75.0,72.0,30.10,West,260,3.0,-999.0,88,-99.99,,,-99.99,,2013-06-24 00:22:00,
2013-06-23 20:33:00,75.0,72.0,30.10,North,0,0.0,-999.0,88,-99.99,,,-99.99,,2013-06-24 00:33:00,
2013-06-23 20:42:00,75.0,72.0,30.10,North,0,0.0,-999.0,88,-99.99,,,-99.99,,2013-06-24 00:42:00,
2013-06-23 20:52:00,73.0,72.0,30.10,North,0,0.0,-999.0,94,-99.99,,,-99.99,,2013-06-24 00:52:00,
2013-06-23 21:01:00,73.0,73.0,30.10,North,0,0.0,-999.0,100,-99.99,,,-99.99,,2013-06-24 01:01:00,
2013-06-23 21:32:00,73.0,72.0,30.11,SW,230,5.0,-999.0,94,-99.99,,,-99.99,,2013-06-24 01:32:00,
2013-06-23 22:02:00,73.0,73.0,30.11,North,0,0.0,-999.0,100,-99.99,,,-99.99,,2013-06-24 02:02:00,
2013-06-23 22:11:00,73.0,73.0,30.12,North,0,0.0,-999.0,100,-99.99,,,-99.99,,2013-06-24 02:11:00,
2013-06-23 22:21:00,70.0,70.0,30.12,North,360,3.0,-999.0,100,-99.99,,,-99.99,,2013-06-24 02:21:00,
2013-06-23 22:33:00,70.0,70.0,30.12,North,0,0.0,-999.0,100,-99.99,,,-99.99,,2013-06-24 02:33:00,
2013-06-23 22:42:00,70.0,70.0,30.12,North,0,0.0,-999.0,100,-99.99,,,-99.99,,2013-06-24 02:42:00,
2013-06-23 22:52:00,70.0,70.0,30.13,North,0,0.0,-999.0,100,-99.99,,,-99.99,,2013-06-24 02:52:00,
2013-06-23 23:01:00,68.0,68.0,30.13,North,0,0.0,-999.0,100,-99.99,,,-99.99,,2013-06-24 03:01:00,
2013-06-23 23:11:00,68.0,68.0,30.13,NW,310,3.0,-999.0,100,-99.99,,,-99.99,,2013-06-24 03:11:00,
2013-06-23 23:21:00,68.0,68.0,30.14,North,0,0.0,-999.0,100,-99.99,,,-99.99,,2013-06-24 03:21:00,
2013-06-23 23:33:00,68.0,68.0,30.14,North,0,0.0,-999.0,100,-99.99,,,-99.99,,2013-06-24 03:33:00,